Location: Barrio de Canyet
(41.4665°N, 2.2381°E)
Time: 02:55:32
(UTC+00:00)

RESURS DK-1 - Pass Details

Date: 09 April 2020
Orbit: 557 x 561 km, 69.9° (Epoch: 31 May)

Event Time Altitude Azimuth Distance (km) Brightness Sun altitude
Rises 20:45:23 0° 343° (NNW) 2,757 6.7 -24.6°
Reaches altitude 10° 20:47:46 10° 352° (N) 1,857 5.6 -25.0°
Enters shadow 20:50:18 27° 23° (NNE) 1,085 3.9 -25.3°
